Location: Capel Gartheli
(52.1833°N, 4.0667°W)
Time: 06:39:45
(UTC+00:00)

Cosmos 614 Rocket - Pass Details

Date: 18 February 2020
Orbit: 733 x 764 km, 74.1° (Epoch: 30 March)

Event Time Altitude Azimuth Distance (km) Brightness Sun altitude
Rises 06:19:11 0° 217° (SW) 3,183 6.9 -11.0°
Reaches altitude 10° 06:21:34 10° 221° (SW) 2,268 6.1 -10.6°
Maximum altitude 06:26:37 57° 300° (WNW) 893 4.1 -9.8°
Drops below altitude 10° 06:31:46 10° 20° (NNE) 2,302 6.6 -9.1°
Sets 06:34:12 0° 24° (NNE) 3,236 7.5 -8.7°
